Location: ??
(31.9467°N, 34.8903°E)
Time: 18:16:54
(UTC+00:00)

Delta 142 - Pass Details

Date: 29 October 2020
Orbit: 548 x 1588 km, 28.4° (Epoch: 30 November)

Event Time Altitude Azimuth Distance (km) Brightness Sun altitude
Rises 15:33:02 0° 268° (W) 2,740 9.0 -9.1°
Reaches altitude 10° 15:35:13 10° 262° (W) 1,896 7.7 -9.5°
Maximum altitude 15:39:22 48° 188° (S) 852 4.4 -10.4°
Drops below altitude 10° 15:44:24 10° 115° (ESE) 2,296 6.0 -11.5°
Enters shadow 15:44:29 10° 114° (ESE) 2,329 6.0 -11.5°
